Showing default

GNOMES-1, 46266

Orbit data source: Space-Track

GNOMES-1, 46266 is a payload satellite owned by PlanetiQ (US) in SSO that was launched on Sun, 30 Aug 2020 UTC via an FALCON 9 launch vehicle from the Air Force Eastern Test Range (AFETR). Payload-class satellites include a variety of spacecraft equipped with specific instruments for various scientific and technological missions. These include communications satellites like Starlink; space stations such as the ISS; scientific satellites like the Hubble; Earth observation satellites from companies like Planet Labs, Umbra, and HawkEye 360; GPS; miniature CubeSats for education and research; and military/defense satellites.

Loading next visibility...
Identifier
46266, 2020-059B
Orbit
SSO
Country
Flag of USUS
Related business
Manufacturer
Blue Canyon
Mission
Operational Commercial Meteo Radio Occ.
Bus & Motor
XSAT, Unknown motor
Mass
~30 kg wet, ~30 kg dry
Launch date (UTC)
2020-08-30 (6 years ago)
Launch vehicle
FALCON 9
Launch site
Air Force Eastern Test Range (AFETR)
Object type
Payload
Rocket body
Debris
Shape & HBR
Box + 2 Pan, Unknown HBR
Radar Cross Section
0.162 m², Medium (>0.1 m² and < 1m²)

Expand to show TLE details & history
Last TLE update: 2 days ago

TLE from 2 days ago
0 GNOMES-1
1 46266U 20059B   26171.39645207  .00002375  00000-0  19390-3 0  9995
2 46266  97.7880  21.7789 0012649  10.6826 349.4663 15.00344224316071
Epoch: 2026-06-20T09:30Z
TLE epoch observation values (Epoch: 2026-06-20T09:30:53.458Z)
Latitude
-0.00011°
Longitude
-29.5555°
Altitude
560.25 km
Speed
7.586 km/s
True Right ascension
01h 27m 06s
True Declination
0° 00' 00"
Sunlit
Object was in daylight at epoch
Visualization orbit readout
Latitude
Unknown
Longitude
Unknown
Altitude
Unknown
Speed
Unknown
Apparent Right ascension
Unknown
Apparent Declination
Unknown
Sunlit
N/A
Visualization observer readout
Local Sidereal Time
21:35:22
Azimuth
Unknown
Elevation
Unknown
Doppler factor
Unknown
Orbital elements
Apogee altitude
571.622 km
Perigee altitude
554.063 km
Semi-major axis
6,940.98 km
Eccentricity
0.00126
Inclination
97.788°
RAAN
21.7789°
Arg. of periapsis
10.6826°
True anomaly
349.43976°
Mean anomaly
349.4663°
Eccentric anomaly
349.45303°
Mean motion
3.75329 °/min
Orbital period
95.92 mins
BSTAR
0.0001939
Loading maneuver chart data...
Computing Atmospheric mass density...
Loading historical data...
Loading historical data...
Loading historical data...
Loading historical data...
Loading historical data...
Loading historical data...
Loading historical data...
Other satellites on launch #59 in the year 2020 (2020-08-30 UTC)

Documentation

Showing up to 5 results
|